Location: *
(33.8649°S, 62.1526°E)
Time: 13:00:40
(UTC+00:00)

GPS 2-04 Rocket1 - Pass Details

Date: 17 January 2021
Orbit: 416 x 543 km, 35.6° (Epoch: 02 March)

Event Time Altitude Azimuth Distance (km) Brightness Sun altitude
Rises 16:01:38 0° 263° (W) 2,369 7.3 -11.1°
Reaches altitude 10° 16:04:00 10° 277° (W) 1,506 5.8 -11.5°
Maximum altitude 16:06:50 24° 333° (NNW) 913 3.9 -12.0°
Enters shadow 16:08:46 15° 19° (NNE) 1,228 4.1 -12.3°
